Wind_Speed
21 20 20 20 19 19 19 19 18 18 17 16 15 15 15 14 14 14 15 16 17 18 19 20 21 22 23 23 23 24 24 25 25 27 28 29 30 31 31 31 30 30 31 31 31 30 30 28 26 25 23 21 20 19 19 19 19 19 20 19 20 20 20 19 19 19 19 20 20 21 22 23 23 23 23 22 19 17 17 17 16 16 17 18 19 19 18 17
20 19 19 20 19 19 18 18 17 17 16 16 15 14 14 14 14 14 15 15 16 17 18 19 19 20 20 21 21 21 22 22 23 24 25 27 27 27 27 27 25 25 25 25 24 24 22 21 20 19 16 15 14 13 13 12 12 11 9 8 8 8 7 6 6 7 9 12 13 15 16 17 17 16 15 12 10 10 12 12 11 12 14 15 14 13 11 11
19 18 19 19 19 18 17 16 16 16 15 15 14 14 14 13 13 14 14 15 16 16 17 18 18 18 19 19 19 19 20 20 20 21 23 23 22 22 23 22 20 19 19 19 19 18 17 18 17 12 9 10 9 8 7 5 3 3 1 1 1 2 4 6 8 9 9 10 11 11 12 12 11 9 8 8 9 10 10 9 9 9 10 10 9 7 6 7
18 18 19 18 18 17 16 15 15 14 14 14 13 13 13 13 13 13 14 14 15 16 16 17 17 17 17 17 17 17 17 17 17 18 19 18 17 17 18 16 15 15 14 14 13 13 14 15 12 8 6 5 3 2 1 2 3 4 5 6 8 10 11 13 14 14 13 13 12 11 10 10 10 9 9 11 11 10 10 9 8 8 7 7 5 5 4 6
18 17 18 18 17 16 15 14 13 13 12 12 12 11 11 11 12 12 13 14 14 15 15 16 16 16 16 15 15 15 14 13 13 15 15 13 12 12 12 12 12 11 10 10 9 9 9 8 7 4 4 5 3 2 3 5 7 8 9 12 13 15 16 17 16 16 16 15 14 13 13 12 12 13 13 13 13 12 11 9 9 8 7 6 5 4 3 4
18 17 18 17 17 16 14 13 12 11 11 10 9 9 9 9 10 10 11 12 13 14 14 14 14 14 14 13 13 12 11 10 10 11 11 9 7 6 7 8 9 7 6 6 6 6 5 4 3 2 6 8 7 5 4 6 10 11 13 16 16 17 18 17 17 17 18 19 18 17 17 17 16 16 15 15 15 13 11 10 9 9 8 7 6 4 3 1
17 17 18 17 16 15 14 12 11 10 9 8 7 7 7 7 8 9 10 11 12 13 13 13 13 12 11 11 10 9 8 7 6 8 6 4 3 2 2 5 5 5 6 7 8 7 5 4 4 6 9 12 11 8 5 7 13 16 17 17 16 16 18 19 19 20 21 22 22 21 21 20 18 17 17 17 17 14 12 12 11 10 9 8 8 7 6 5
17 16 17 17 16 15 13 11 10 9 7 6 5 5 5 5 6 7 8 9 10 11 11 11 11 11 9 8 7 7 6 4 4 4 1 2 1 3 2 7 9 10 10 10 12 10 8 10 10 10 11 13 13 11 9 10 15 18 18 18 16 16 18 20 22 24 25 26 26 24 22 20 17 16 17 17 16 13 12 13 12 12 12 12 11 9 8 6
17 16 17 17 16 15 13 12 9 8 6 5 4 4 4 4 4 5 6 6 8 9 10 10 10 9 8 6 5 4 4 4 4 3 4 2 4 2 6 10 10 15 14 13 14 11 12 15 16 16 16 16 15 12 11 11 13 15 16 16 15 16 19 21 23 26 26 26 27 24 21 19 14 13 17 17 15 14 14 15 16 16 15 14 12 10 8 6
17 16 16 17 16 15 14 12 9 8 6 5 4 3 2 2 2 3 4 5 6 7 8 9 9 9 7 6 5 4 5 6 7 7 5 4 4 7 12 11 11 17 17 14 14 13 15 18 20 21 21 21 18 15 12 11 11 12 13 13 14 16 20 22 23 26 25 24 25 22 20 18 14 12 15 18 16 16 17 18 18 18 16 14 12 10 8 7
18 16 15 16 16 15 14 12 9 8 6 4 3 2 1 1 1 1 2 3 5 6 7 8 8 8 7 7 6 6 7 9 12 9 8 8 10 12 12 12 15 19 18 15 15 15 17 21 24 24 24 25 22 20 17 15 13 13 15 16 16 17 20 23 23 25 24 22 22 20 18 18 17 14 15 19 19 19 19 19 19 17 16 13 12 11 9 9
18 16 15 15 16 15 14 13 10 8 6 4 3 3 2 2 2 1 1 2 4 6 7 7 7 7 6 7 7 9 9 12 14 11 12 16 17 13 11 14 20 22 19 17 17 17 19 21 25 25 25 26 26 24 21 20 18 18 19 20 20 20 21 23 24 25 24 21 20 18 19 21 20 17 18 21 20 19 19 18 17 16 14 13 12 12 11 10
18 16 15 15 16 15 15 13 10 9 6 5 4 4 4 4 4 2 1 2 4 5 6 7 7 7 6 7 8 13 13 15 15 13 15 19 20 14 11 18 21 21 19 18 18 19 21 22 24 26 25 26 27 26 23 22 22 21 21 22 23 22 21 22 23 25 25 22 19 18 21 23 22 20 20 21 20 19 18 16 15 14 13 12 13 13 12 10
17 17 15 14 15 15 15 14 11 9 7 5 5 5 6 5 4 3 1 2 4 4 5 6 6 6 7 7 10 16 17 16 15 15 17 19 20 15 12 19 20 18 19 17 18 19 20 21 22 25 26 26 27 25 22 20 22 22 21 19 20 20 19 19 21 24 25 24 21 20 23 25 23 21 20 20 19 18 16 15 13 13 13 13 13 11 10 11
17 17 15 14 14 15 15 15 12 10 8 6 6 7 7 6 5 4 2 2 3 4 5 5 5 6 7 7 12 19 19 17 15 17 19 13 15 17 14 17 17 16 19 17 18 18 17 18 20 24 27 28 28 26 23 21 22 22 21 19 18 19 21 21 22 25 26 26 23 21 22 24 23 20 19 18 17 16 15 14 13 13 14 13 11 10 11 13
16 16 16 14 14 14 15 15 14 11 9 7 7 7 9 8 8 6 3 4 5 4 4 4 3 5 6 7 13 20 22 20 17 19 19 12 14 20 17 16 17 18 19 16 17 18 16 17 20 24 26 27 27 27 25 24 23 23 22 22 21 21 24 25 26 27 28 27 24 22 20 22 22 19 18 17 15 14 15 16 15 14 13 12 12 12 13 13
17 16 16 15 13 14 14 15 14 13 10 8 7 8 10 10 10 8 6 7 7 5 3 2 2 4 7 10 15 20 24 23 19 18 18 16 20 21 17 17 18 19 18 14 15 17 16 16 17 20 22 24 26 26 25 24 23 23 23 24 23 22 24 26 26 27 28 26 23 20 18 19 20 18 16 15 14 14 15 16 15 13 13 13 13 13 13 13
17 16 16 15 14 13 14 15 15 14 11 9 7 8 11 12 11 11 8 8 7 5 3 1 3 7 9 12 16 19 25 26 22 19 20 22 24 21 17 16 16 18 18 13 12 15 16 16 14 16 20 21 24 26 25 24 24 23 24 24 24 24 23 22 23 24 25 23 20 18 17 17 17 16 15 15 13 13 15 14 13 13 13 12 12 12 13 14
18 16 16 16 14 13 14 14 15 15 12 10 7 7 10 12 12 12 10 9 7 5 4 2 4 7 10 11 14 18 25 27 25 23 23 25 26 23 18 16 14 16 18 13 11 13 15 16 14 14 17 19 22 25 25 24 23 22 22 23 23 23 21 19 18 19 21 21 19 17 15 16 15 15 15 14 14 14 14 13 13 13 12 11 11 12 14 15
19 17 16 16 15 13 13 14 15 15 13 10 8 7 9 12 13 13 12 10 8 6 5 4 3 6 8 9 12 17 23 27 27 26 26 26 26 24 20 19 16 14 16 14 11 11 13 15 14 13 15 18 21 23 24 22 21 21 21 22 21 20 19 18 17 17 18 19 19 16 14 14 15 14 13 14 14 13 12 12 11 11 12 13 12 11 13 15
20 18 17 16 16 14 13 14 14 15 13 10 9 7 9 12 14 12 12 10 9 8 6 4 3 6 8 10 13 17 22 26 27 28 28 27 27 24 21 20 17 14 14 14 12 11 11 13 13 13 14 18 20 21 22 21 19 19 19 20 20 19 18 18 17 17 16 17 17 15 13 13 13 12 12 12 12 12 11 10 9 11 13 13 12 12 13 14
22 20 18 17 16 15 14 14 14 14 13 11 10 8 8 11 14 12 11 9 9 8 7 5 4 6 8 10 13 17 22 25 27 29 28 26 27 27 22 19 17 15 13 12 12 10 10 11 12 12 11 15 20 22 20 20 19 18 17 17 18 18 16 15 16 16 14 14 15 13 12 11 10 10 11 10 10 10 9 8 9 11 12 13 13 14 14 14
23 22 20 18 17 16 15 14 14 14 14 11 9 6 6 10 14 14 10 10 9 8 7 5 4 6 10 12 12 16 22 25 27 29 29 27 28 27 24 19 17 16 14 11 11 9 9 10 10 11 9 11 18 22 19 18 17 16 15 16 18 17 15 14 14 14 13 13 13 12 11 9 9 10 8 7 8 9 9 10 10 10 10 12 14 15 15 16
23 22 21 19 17 17 15 13 13 14 12 7 4 3 10 15 17 16 13 12 10 8 7 5 2 6 13 16 14 15 20 25 28 31 30 29 29 26 24 22 18 16 14 12 12 10 9 9 10 11 9 9 15 19 19 17 15 15 15 17 18 17 15 14 14 14 12 12 11 11 10 9 10 9 8 9 9 8 9 10 10 9 10 12 13 14 15 17
24 23 22 19 18 18 15 13 13 14 12 8 5 9 16 21 21 19 16 15 12 9 9 7 5 8 11 16 18 18 21 25 27 30 31 31 30 27 24 23 19 16 15 14 14 12 9 7 8 9 7 8 14 19 19 15 15 16 17 18 18 17 15 14 14 13 12 12 11 10 9 9 10 10 10 11 9 7 8 10 10 11 12 13 13 14 16 18
25 24 23 21 19 18 15 14 15 14 14 13 10 10 15 21 24 22 21 18 15 12 11 9 8 8 9 14 20 20 22 25 26 27 29 30 31 29 25 23 20 18 17 16 16 15 12 10 8 6 6 9 15 19 19 16 16 19 20 19 18 17 16 15 14 12 12 11 11 10 11 11 12 11 10 9 8 8 8 8 9 11 13 14 15 16 18 17
27 25 24 22 20 18 15 15 16 17 16 15 12 8 9 17 23 23 22 20 17 15 13 11 9 9 9 13 20 22 23 25 25 25 27 28 30 30 28 25 23 21 19 19 18 17 15 13 11 9 8 13 17 18 19 17 17 20 21 19 19 18 17 16 14 12 11 11 10 11 11 11 12 11 9 7 8 8 7 5 5 7 10 13 15 17 18 14
30 26 25 24 22 19 16 16 18 18 17 15 12 8 9 18 23 23 23 21 18 17 15 13 10 11 12 16 20 23 24 24 24 24 25 26 28 29 28 26 25 23 21 19 18 19 19 16 14 12 11 15 18 18 20 18 18 20 19 17 18 18 17 16 14 11 10 9 10 11 10 11 12 10 8 7 6 7 9 10 10 9 12 14 15 16 15 12
33 29 26 26 24 20 17 19 21 18 16 15 12 9 11 19 24 26 24 21 19 17 16 14 12 13 14 17 20 23 24 24 24 24 24 25 26 27 27 26 23 20 17 15 16 20 20 18 16 14 13 17 20 20 20 18 18 19 17 15 15 15 15 15 13 10 8 7 10 11 10 10 9 9 7 5 4 7 11 13 13 13 13 13 12 13 13 11
36 31 28 27 25 21 18 21 22 17 15 16 13 10 12 18 24 28 27 24 22 19 18 18 16 16 17 18 21 23 24 24 24 24 24 24 25 26 27 25 21 18 16 16 18 20 20 18 17 15 15 19 21 20 20 18 18 17 14 13 11 11 12 12 12 10 6 6 9 10 8 7 6 6 5 3 4 8 9 8 9 9 9 9 10 12 13 10
38 34 30 28 27 23 20 24 22 16 15 18 16 12 13 17 22 28 27 25 25 22 20 21 20 19 19 19 22 24 23 24 24 24 24 24 25 26 25 22 19 17 17 18 19 21 20 18 18 16 17 19 20 20 19 17 16 14 12 10 9 9 10 10 10 9 6 4 6 6 5 5 5 5 5 4 6 7 6 7 8 9 10 11 13 13 13 10
39 37 32 29 29 24 22 25 22 16 18 19 16 15 14 15 23 29 25 24 27 25 21 20 20 19 18 19 22 23 23 24 24 24 24 25 25 25 24 21 19 19 18 17 19 20 20 20 20 17 16 17 18 18 19 18 15 12 11 8 6 6 7 7 7 6 4 3 2 3 3 4 5 6 6 6 8 8 8 10 13 14 13 15 16 14 11 10
40 39 35 32 31 26 23 26 22 17 20 19 17 17 14 17 25 27 25 27 29 25 21 20 21 19 19 21 23 23 24 24 24 24 24 25 26 25 23 21 20 20 19 18 19 20 20 21 21 19 16 16 17 16 18 20 17 12 11 9 6 4 4 5 5 4 3 3 2 1 2 4 5 5 5 6 9 11 11 13 15 15 15 16 14 10 9 8
42 40 38 35 32 28 25 26 23 20 21 19 19 18 16 20 24 23 26 30 27 25 25 24 24 24 23 25 24 23 24 25 25 25 25 26 26 24 23 21 20 19 18 17 18 19 19 20 20 19 16 16 16 14 16 19 18 14 12 10 6 4 3 3 2 2 1 3 4 3 2 4 6 7 6 5 7 9 9 11 14 14 14 14 11 8 8 7
44 42 41 38 34 30 27 26 23 22 22 21 21 20 20 22 20 20 28 31 29 29 27 25 27 27 27 29 28 26 26 26 26 26 27 26 26 23 22 21 19 19 18 17 18 18 19 18 19 19 17 16 15 13 15 18 17 15 14 11 8 6 4 2 2 2 1 1 4 4 4 5 7 9 9 6 3 3 4 6 11 13 13 13 11 9 8 7
46 44 43 41 37 33 29 26 24 24 24 22 23 23 21 21 17 21 29 31 31 30 27 26 28 27 28 31 32 30 29 28 28 27 27 27 26 24 22 21 20 19 18 17 18 18 18 18 18 18 16 15 15 14 15 16 16 15 14 12 9 6 4 2 2 1 2 2 3 4 5 7 9 9 9 8 4 2 3 4 11 14 14 13 11 9 8 8
49 47 46 44 39 35 31 27 25 26 26 24 25 24 21 19 17 21 29 31 29 27 26 27 28 28 29 31 33 33 31 30 29 28 28 27 25 24 23 21 19 18 18 17 18 17 17 17 17 16 15 15 16 15 15 14 14 13 12 10 7 5 5 4 3 2 1 1 2 3 5 7 7 7 8 10 8 4 4 9 13 15 15 13 10 7 6 7
52 51 49 46 41 37 33 29 26 27 27 27 27 24 21 20 18 22 29 31 29 26 25 26 29 31 31 32 34 33 31 30 30 29 28 26 24 24 23 22 20 18 17 17 17 17 17 16 15 15 15 16 16 15 14 13 12 12 10 8 7 5 5 6 5 4 2 2 3 4 5 5 4 6 8 10 11 10 10 12 13 14 15 12 9 6 4 5
54 54 51 47 43 39 35 30 27 28 29 30 29 26 23 21 20 24 29 32 32 29 27 27 30 31 32 32 34 33 32 32 32 30 29 28 27 27 25 24 22 21 20 17 15 15 16 15 15 15 16 16 16 15 14 13 12 11 9 7 7 7 6 5 5 4 3 3 4 4 4 3 2 4 7 9 11 11 11 12 12 14 14 10 6 4 4 5
56 56 52 47 44 40 37 32 28 28 31 33 31 27 25 23 22 25 29 34 35 33 30 30 31 31 32 32 32 32 33 33 32 31 31 31 30 29 27 26 24 24 22 18 15 16 16 16 15 15 16 16 16 15 15 14 12 9 8 7 8 8 6 4 3 4 3 5 5 4 4 3 1 4 7 8 10 10 9 12 12 12 12 11 6 3 3 4
55 57 53 49 46 44 40 34 30 31 34 36 33 28 26 25 23 25 30 34 35 34 33 33 33 33 33 33 32 34 35 34 33 31 31 31 30 28 28 27 25 24 21 18 17 17 16 15 14 14 15 16 16 16 16 15 12 9 11 11 9 8 6 5 6 6 4 5 6 4 4 3 2 4 6 6 8 9 8 9 11 11 12 12 9 5 3 1
55 57 56 52 49 47 43 37 34 34 37 39 36 31 28 26 24 25 30 33 34 34 34 35 35 34 34 33 33 36 37 35 33 31 29 28 27 28 29 28 26 23 21 20 18 16 15 15 14 14 15 16 17 17 17 16 13 13 14 13 9 7 6 6 7 6 5 6 7 5 4 5 3 4 5 5 6 9 9 7 9 11 11 11 11 8 6 4
55 58 58 54 50 48 45 40 37 38 41 42 39 33 29 28 26 26 29 33 35 36 36 36 36 36 36 35 36 37 38 36 33 30 29 27 26 29 30 29 27 25 23 21 19 17 16 16 15 15 15 17 19 18 17 17 16 15 15 13 10 9 8 8 8 6 5 6 8 6 5 5 5 4 6 6 6 8 11 9 9 11 11 11 12 10 9 8
54 57 59 56 52 49 47 43 42 43 45 45 41 36 32 30 28 27 31 35 36 37 39 38 39 39 37 36 38 39 38 35 32 31 31 30 29 31 30 28 27 26 23 22 21 19 18 17 16 17 18 20 20 19 19 19 18 16 15 14 13 11 10 10 10 8 7 8 11 9 7 7 7 6 6 7 7 9 13 14 12 12 12 11 12 11 10 10
54 57 60 59 55 52 50 47 46 45 46 45 41 37 33 31 30 30 33 36 37 38 40 40 40 39 38 37 39 39 37 34 32 32 33 31 31 31 30 27 27 26 24 25 24 22 21 20 19 19 21 22 22 21 22 21 20 18 18 17 15 13 12 12 11 10 9 9 12 12 11 11 10 8 7 8 8 9 13 16 16 14 12 10 10 11 12 12
54 57 61 61 59 56 53 51 48 45 44 42 40 36 34 34 34 33 34 37 39 41 42 41 39 39 39 39 40 40 38 35 33 33 33 32 31 32 30 28 28 28 27 27 25 25 24 22 21 22 23 23 23 23 23 23 21 20 20 19 17 16 15 14 12 11 10 12 13 12 13 14 14 12 9 10 12 12 13 16 17 15 12 11 13 14 15 15
54 57 62 64 62 59 56 53 50 48 45 42 40 39 38 38 38 35 34 36 39 42 43 41 39 38 39 39 40 40 38 36 34 33 32 30 30 30 30 30 30 29 29 27 24 25 24 23 23 25 24 23 24 24 24 23 22 21 21 20 19 18 17 16 14 12 11 13 14 13 13 15 17 16 11 11 14 15 16 17 18 17 16 17 18 18 17 16
54 57 62 66 65 63 60 56 53 50 47 45 44 43 42 42 40 36 35 36 39 42 43 42 39 37 36 36 37 39 38 36 35 33 30 29 29 29 29 30 29 27 27 26 25 26 26 24 25 25 25 25 25 26 25 23 21 21 20 19 19 19 18 17 16 14 13 14 16 17 15 14 18 19 16 15 16 16 17 18 19 19 20 20 22 23 21 18
55 58 62 66 68 66 63 59 55 52 50 48 48 48 47 46 43 39 37 37 39 41 43 40 36 34 32 32 33 35 36 37 36 34 31 30 30 30 30 29 28 27 26 26 27 29 29 27 26 26 26 27 27 27 26 24 22 21 20 20 20 20 19 19 18 17 15 16 18 20 17 14 16 19 19 18 19 18 18 18 20 21 22 23 24 25 23 19
55 58 62 67 70 69 66 61 57 56 54 52 52 51 50 48 45 41 39 39 40 41 42 41 36 32 31 31 32 33 35 36 36 34 34 33 32 32 31 29 29 28 28 28 29 31 32 29 27 27 27 28 27 27 27 26 24 23 22 22 22 22 22 21 20 19 18 18 20 21 19 17 17 19 19 19 19 19 19 19 20 22 24 24 25 26 24 20
56 59 62 67 71 70 68 64 61 59 58 56 54 53 51 49 46 43 41 41 40 39 40 41 37 33 31 31 33 35 35 35 33 32 34 35 35 34 32 30 30 30 30 30 31 32 32 31 29 28 28 28 27 26 27 26 24 24 24 24 23 24 24 23 22 22 21 21 22 21 20 21 21 20 20 20 19 19 20 21 21 21 22 23 24 25 24 21
57 60 63 67 70 71 70 67 64 62 61 58 56 53 50 48 46 44 44 42 40 39 40 40 37 35 34 32 33 35 37 37 34 30 31 34 36 37 35 33 32 32 31 31 31 32 32 32 32 30 29 29 27 25 25 24 24 26 26 24 24 25 26 25 26 26 25 24 23 21 21 22 23 22 22 22 22 22 22 22 21 21 22 22 24 25 23 21
Wind_Direction
305 308 306 305 306 304 303 301 298 296 292 288 284 279 274 270 266 262 260 259 259 258 258 259 260 261 262 264 266 269 270 273 275 277 279 280 282 284 286 287 288 288 288 288 289 291 292 295 297 293 289 287 286 288 289 286 282 278 273 268 264 262 261 261 259 254 247 239 233 232 230 229 230 230 232 235 237 240 244 244 243 242 240 238 236 234 234 237
310 313 311 310 310 307 304 302 298 294 291 288 285 281 277 274 270 267 264 263 263 263 262 262 263 264 266 269 271 274 276 278 280 281 282 284 286 289 290 290 290 290 291 293 295 297 301 305 302 297 301 309 315 317 310 302 295 289 280 270 265 257 251 245 237 225 216 213 212 213 210 208 211 214 216 215 209 214 221 218 214 217 218 216 214 214 219 229
313 316 314 313 311 307 305 301 297 293 290 287 284 282 279 276 274 272 270 269 268 268 267 267 268 270 272 275 277 279 280 281 283 283 284 286 290 292 292 293 295 296 297 299 302 307 311 309 309 319 342 346 342 332 319 317 317 307 285 152 108 118 129 130 133 140 151 160 165 174 179 177 176 181 186 170 166 180 183 178 177 185 191 190 189 194 212 235
314 318 315 314 312 308 305 300 296 292 289 287 285 284 282 281 280 278 277 275 274 273 273 273 274 275 277 278 279 279 281 283 283 283 284 289 292 293 296 301 304 304 303 307 314 318 316 315 325 356 30 26 4 332 304 112 115 115 105 100 103 108 112 116 119 124 128 132 135 140 142 146 149 147 145 143 149 150 137 135 142 148 157 163 172 190 219 243
315 318 316 315 313 309 306 301 296 292 288 287 286 286 285 283 280 277 276 275 274 274 273 273 274 275 276 277 278 279 281 282 280 281 285 287 292 301 310 312 307 307 314 323 331 327 322 334 349 14 74 92 105 138 158 147 129 114 105 103 108 113 117 121 121 120 117 115 120 124 118 122 133 131 129 134 134 131 129 134 138 144 152 157 168 183 207 242
315 319 318 317 316 312 309 304 299 294 290 288 286 285 282 279 276 273 272 271 270 269 269 270 271 273 275 277 279 280 280 275 275 277 280 289 306 320 324 321 315 327 354 8 11 357 356 22 42 92 108 104 107 118 139 142 120 104 101 102 107 114 119 120 118 114 111 110 115 120 117 115 119 121 126 128 123 124 133 139 143 146 146 142 136 128 122 108
315 319 319 318 318 316 313 309 303 297 293 288 284 281 278 276 274 274 273 272 271 271 271 271 272 273 273 276 277 278 273 262 262 267 278 316 345 316 337 13 17 39 56 61 54 43 51 83 114 122 113 105 104 110 111 109 105 103 102 102 106 113 114 114 114 115 114 112 112 114 116 115 116 119 121 118 115 121 128 130 134 131 122 113 103 94 84 65
314 319 320 319 319 319 317 313 307 301 293 283 279 273 272 275 275 279 281 281 281 280 279 276 274 272 270 270 269 269 258 229 229 248 328 51 251 241 100 79 75 73 67 69 73 74 88 100 112 118 114 109 108 111 110 99 99 103 102 101 103 105 106 109 115 115 112 111 111 114 116 115 115 114 110 107 110 118 122 119 115 107 99 93 88 82 75 61
312 318 320 320 320 322 320 316 310 301 287 272 264 260 265 271 280 292 298 301 299 293 287 280 276 272 266 258 249 240 217 182 175 144 105 153 224 198 98 95 88 77 65 65 77 86 97 101 103 106 105 102 103 110 118 112 107 106 102 101 102 102 105 108 112 111 108 108 110 112 112 112 109 103 103 105 107 108 109 108 102 95 92 89 86 82 76 66
310 316 320 319 320 323 322 318 313 302 284 265 253 254 258 264 294 316 319 320 309 300 288 279 276 270 258 240 219 190 185 163 141 129 132 189 170 110 98 98 88 81 77 73 81 90 99 101 98 98 98 98 101 108 116 115 115 116 109 105 104 108 112 113 113 109 105 104 105 108 109 107 102 97 102 105 102 99 99 99 95 94 92 90 88 83 73 61
307 314 318 319 319 323 323 319 313 303 285 259 248 242 229 227 274 313 322 322 306 298 284 274 269 262 252 233 193 157 180 158 137 146 157 145 113 100 103 100 89 89 93 92 93 96 97 100 98 97 100 101 100 100 102 106 111 114 112 110 108 112 117 117 116 110 105 103 106 111 110 105 103 102 103 101 99 98 96 95 94 94 92 89 84 75 64 53
305 310 316 318 318 322 323 320 313 302 285 257 246 231 208 203 204 236 296 316 305 298 285 270 257 249 241 227 176 152 177 154 143 168 162 133 110 104 114 102 92 95 101 100 96 95 93 97 100 100 100 99 95 92 93 97 103 109 112 113 113 115 117 117 116 110 107 109 113 118 113 108 108 106 102 100 99 98 96 95 94 91 89 86 77 66 57 47
303 306 313 316 317 320 321 319 311 301 284 255 247 228 208 203 202 214 257 304 299 290 273 258 248 239 227 219 169 155 167 150 152 176 164 137 116 111 119 105 101 103 102 97 92 91 92 93 96 97 94 91 89 87 87 91 100 107 109 111 113 116 118 118 116 111 111 114 118 120 115 111 110 106 102 101 101 98 95 92 89 86 82 76 66 56 49 43
302 302 308 312 315 318 319 318 309 300 284 257 249 231 210 203 196 190 197 284 283 266 253 251 250 237 220 210 168 157 157 150 162 174 166 149 121 117 124 110 109 109 100 93 87 87 91 92 93 94 94 91 89 87 87 91 99 103 105 108 112 116 118 117 115 115 116 117 119 119 116 113 111 107 105 102 99 96 92 88 85 79 70 64 60 56 48 42
300 298 303 308 312 315 317 317 309 300 285 260 250 233 209 192 177 171 180 238 248 241 245 249 251 228 207 199 172 157 150 154 171 167 167 169 130 132 142 121 115 108 98 94 91 90 93 97 99 100 98 94 91 90 92 95 98 102 106 109 111 114 115 114 115 116 116 117 118 118 116 114 111 107 104 100 95 90 86 81 74 66 59 58 59 55 47 42
297 295 298 303 307 311 314 315 309 300 288 266 253 233 208 188 168 164 178 194 201 206 229 245 246 215 182 177 174 156 148 158 173 167 169 186 147 144 155 139 124 109 100 100 100 100 102 103 105 105 102 99 96 93 95 97 100 105 109 110 111 113 114 115 116 117 117 117 116 116 113 108 104 99 96 91 83 77 72 65 56 53 52 53 53 46 38 34
294 292 293 297 303 307 310 312 309 301 291 272 253 232 216 196 170 165 178 189 188 177 200 244 210 178 151 166 177 157 151 162 172 171 168 162 146 148 159 143 128 115 109 112 110 107 108 108 109 110 108 105 103 101 100 101 103 108 111 113 114 114 113 115 117 118 116 113 111 110 105 98 95 93 88 81 73 66 62 57 50 49 48 48 47 40 32 25
290 291 289 292 298 303 306 310 308 303 295 279 255 235 228 213 182 168 177 185 182 170 165 136 139 142 141 168 178 157 156 165 169 168 160 150 145 150 155 141 131 125 120 127 123 114 116 117 120 123 116 110 107 105 104 105 107 109 112 116 117 114 112 114 116 114 110 106 104 102 97 93 91 88 82 75 70 64 61 59 57 54 49 47 45 39 31 21
285 288 287 288 292 297 302 306 308 305 298 284 259 233 232 227 199 173 176 180 170 163 150 110 119 131 137 164 169 156 162 170 168 163 157 152 149 150 153 147 144 136 128 135 137 128 130 128 130 136 129 119 113 110 109 110 112 113 115 116 115 114 115 115 110 105 102 102 103 100 94 91 88 84 78 71 64 59 59 62 62 58 53 49 42 35 27 18
279 285 285 284 287 293 297 302 307 306 301 288 266 235 225 230 216 184 176 176 159 145 132 110 112 134 142 160 164 162 169 173 169 164 160 156 151 151 159 159 153 147 140 144 151 150 142 132 132 143 144 133 122 118 116 115 118 121 118 115 113 113 114 112 106 100 97 99 102 101 96 91 85 79 73 65 57 56 59 62 63 59 52 43 33 27 22 18
273 281 284 282 283 287 292 297 302 302 301 290 269 239 215 224 228 202 178 174 162 144 129 120 138 151 155 166 169 170 176 177 173 168 164 161 154 152 165 171 160 155 157 157 162 163 150 137 133 143 152 142 130 127 124 121 124 125 120 117 115 113 112 111 108 103 100 101 103 102 94 84 76 72 69 62 58 60 62 64 65 57 46 34 25 19 16 16
266 274 281 281 279 282 287 290 293 299 300 293 278 253 214 216 233 219 186 176 172 155 139 137 148 157 162 169 172 170 176 184 179 171 168 165 160 156 164 181 178 164 166 173 173 170 165 156 139 135 150 148 136 134 133 130 127 126 127 124 118 112 111 112 110 106 103 104 104 98 87 79 75 70 65 67 77 81 81 78 68 53 40 27 20 14 9 11
258 266 275 278 276 277 279 283 290 299 305 308 302 273 200 201 225 224 196 185 186 175 162 148 142 168 166 163 172 172 176 188 186 175 173 170 167 164 164 179 190 175 168 182 189 185 182 176 151 134 142 152 142 138 140 138 131 131 134 127 118 112 108 110 110 105 102 102 100 94 88 86 81 72 72 92 99 93 86 75 60 49 34 23 18 11 8 10
251 258 267 273 274 271 273 280 288 296 301 306 307 232 182 190 213 216 197 193 199 194 184 165 166 209 180 160 166 178 182 193 191 180 179 178 174 173 173 178 187 181 174 184 200 208 207 190 160 141 143 157 149 142 143 144 135 131 129 122 119 116 113 115 113 108 108 106 99 94 93 92 87 85 94 94 84 76 70 61 53 46 32 20 14 9 9 9
244 251 260 268 271 268 269 276 282 287 285 268 230 200 188 189 203 209 200 199 204 207 205 191 194 216 192 160 162 181 190 197 196 184 182 186 182 179 181 181 178 177 182 188 198 209 213 201 164 142 143 163 156 145 142 144 140 133 129 127 125 120 117 115 110 108 109 104 100 103 102 97 95 93 87 79 74 72 59 43 31 26 21 13 7 8 11 9
238 245 253 262 266 265 265 271 275 276 272 263 246 227 211 198 200 207 207 205 206 211 212 202 191 194 187 165 165 182 193 197 197 185 181 188 189 184 184 184 176 178 191 195 196 200 199 203 197 169 155 164 161 149 141 146 147 141 141 140 134 127 121 113 109 112 112 110 113 112 107 104 98 88 80 76 74 64 48 31 22 18 11 3 2 7 10 10
234 238 247 255 261 262 260 263 268 266 266 268 268 269 241 209 203 209 213 210 206 209 212 207 193 181 181 176 174 184 192 194 191 182 178 185 191 189 187 185 180 181 194 198 199 201 200 205 208 199 179 168 167 157 146 152 158 152 155 153 142 135 130 122 119 120 120 122 120 111 110 109 100 88 77 65 54 41 26 16 30 34 17 3 1 5 7 15
232 233 241 249 256 259 257 257 260 260 265 274 279 273 227 206 205 213 219 216 209 209 211 207 196 186 185 181 181 186 190 189 185 178 177 184 189 191 190 190 187 186 193 203 210 209 205 207 207 204 193 174 171 164 154 159 169 166 165 161 148 144 139 130 126 123 121 126 119 110 113 112 103 96 81 63 49 30 14 6 8 15 12 3 359 3 10 26
232 230 235 243 251 256 254 253 254 255 265 277 278 260 227 210 204 209 218 218 214 212 209 205 201 197 193 184 184 188 188 185 180 176 179 184 187 190 190 191 192 195 197 202 210 204 198 202 205 206 199 180 170 166 160 162 172 172 170 164 153 147 142 135 130 123 123 132 119 107 107 107 102 94 78 60 48 34 18 2 352 352 358 357 354 3 19 37
232 230 231 238 246 251 251 250 249 251 263 269 264 248 233 221 209 208 213 213 214 215 208 202 200 200 197 188 186 189 188 183 178 176 179 183 187 189 189 190 195 203 197 185 186 187 186 194 202 203 197 183 172 168 166 166 171 175 175 169 159 149 146 145 138 129 133 126 104 94 92 92 92 85 67 42 37 34 16 346 330 336 354 359 359 13 30 41
230 230 228 233 240 244 248 249 246 247 256 261 263 252 237 225 215 214 213 210 212 215 211 204 197 197 198 191 189 191 189 183 180 179 179 182 186 187 190 193 197 196 187 180 181 179 178 188 196 197 191 184 178 175 174 175 175 178 178 175 168 157 151 150 145 140 148 133 94 85 77 70 72 68 48 24 26 25 3 338 338 349 8 12 6 18 36 42
227 230 227 229 236 239 244 247 243 243 251 257 261 255 242 220 215 218 214 210 211 213 215 209 196 195 198 196 195 192 188 185 185 184 183 184 187 189 191 193 191 185 180 184 186 179 176 184 193 197 195 192 188 183 181 182 181 182 182 180 180 165 147 143 149 150 162 171 124 103 75 46 42 41 29 12 5 1 354 356 355 353 6 14 6 10 34 46
224 228 227 227 232 234 240 245 241 238 247 253 255 253 242 218 216 217 211 211 211 209 214 208 195 194 198 201 202 194 186 186 188 187 186 187 187 188 190 187 185 183 180 186 191 185 181 186 193 199 201 197 189 183 183 184 185 189 190 189 190 186 167 151 147 149 175 204 207 146 69 21 7 7 14 8 353 348 354 359 351 345 358 11 8 10 34 45
221 227 227 226 228 229 236 242 239 237 242 249 252 250 238 226 223 213 207 211 208 204 210 204 193 194 196 200 202 196 189 186 185 185 186 187 188 187 187 183 183 186 183 186 193 192 188 192 197 195 193 191 184 181 185 187 191 196 196 198 202 203 198 163 116 93 163 207 236 258 330 352 338 329 338 352 347 344 349 350 344 342 353 5 14 37 51 43
219 224 226 226 226 225 232 238 237 236 239 243 248 247 241 240 233 209 204 207 202 201 207 202 195 195 194 197 197 195 194 189 186 186 186 188 189 187 184 180 182 188 187 188 195 196 195 198 199 194 191 192 185 179 184 189 195 197 197 205 219 222 201 145 41 21 37 231 250 266 292 313 314 314 319 322 331 323 298 331 345 344 351 8 20 35 46 39
217 222 225 226 225 223 227 235 234 234 236 239 244 245 246 249 237 211 206 204 198 199 201 198 197 197 197 198 196 194 196 194 192 190 189 191 190 186 186 184 183 185 188 191 194 197 197 199 200 195 193 190 181 178 185 192 195 195 199 209 220 227 206 152 79 48 23 335 294 292 298 298 299 304 308 309 311 242 230 336 357 348 352 16 30 26 25 26
215 220 223 224 224 222 224 230 232 232 234 237 241 244 246 246 233 214 209 203 196 197 199 197 196 197 200 202 199 196 196 197 195 193 194 195 192 188 189 190 186 183 187 190 190 193 195 198 199 193 188 185 181 183 190 196 197 196 204 215 219 223 205 179 153 127 61 331 286 274 273 275 283 296 308 313 322 346 8 6 5 355 352 11 30 27 19 19
214 219 222 223 224 222 221 225 229 231 233 236 239 241 242 239 225 213 209 202 195 196 201 202 199 199 199 202 202 198 196 199 199 198 198 197 195 192 192 194 190 184 187 189 189 192 192 194 196 192 191 191 186 189 195 198 201 203 209 221 227 226 208 183 163 151 164 210 211 220 233 243 273 307 316 321 329 349 6 5 6 3 356 2 17 16 13 21
214 217 220 222 224 224 221 222 226 228 232 235 235 236 239 236 225 213 206 200 196 195 199 202 202 201 200 201 202 199 198 201 202 201 200 198 198 196 194 196 193 188 189 189 190 193 191 192 194 194 199 199 192 194 198 198 202 208 211 221 231 227 209 184 158 151 182 224 224 224 229 222 244 308 316 325 330 338 352 358 5 7 358 354 6 8 5 14
215 216 219 220 223 225 222 220 225 228 231 234 232 231 236 235 227 215 205 200 199 197 196 197 198 200 201 202 201 199 201 204 204 204 202 201 201 198 196 197 197 195 192 190 194 194 190 191 193 197 203 201 197 197 196 196 202 206 210 225 234 225 209 193 175 169 204 238 237 232 238 231 246 311 318 325 321 321 340 352 360 4 354 345 351 7 9 11
216 215 216 217 220 223 220 216 220 226 230 234 232 228 232 234 227 218 207 202 201 199 196 194 194 198 201 200 199 199 202 206 208 209 208 207 204 200 199 200 200 198 194 194 201 197 191 193 195 202 206 203 201 200 195 197 202 208 218 228 233 226 217 214 207 192 201 238 242 232 249 265 287 308 308 311 306 306 325 345 352 358 354 345 343 344 338 334
217 214 215 216 217 221 220 214 215 221 227 233 231 226 229 233 228 220 209 202 200 201 199 195 193 196 199 199 199 200 203 205 208 211 213 214 210 204 203 203 200 196 193 199 204 199 197 202 205 207 205 203 205 202 197 200 206 213 221 226 226 222 223 225 220 202 199 237 244 231 247 269 275 287 294 296 298 303 312 328 343 349 351 346 340 332 318 304
217 214 214 215 216 220 220 214 214 219 224 230 229 224 225 229 227 220 210 203 201 201 200 198 196 196 198 197 198 202 205 205 205 209 214 216 213 209 207 204 199 194 194 200 204 203 205 208 209 208 205 208 209 204 201 205 211 216 221 227 226 221 228 237 236 226 224 257 263 248 247 271 281 291 300 305 306 310 314 318 330 338 341 339 334 327 315 303
218 214 214 214 215 219 220 216 214 218 222 226 226 221 221 225 225 217 209 206 205 202 201 201 200 198 197 197 199 203 206 205 203 207 212 213 211 211 211 206 198 194 197 203 204 206 210 210 210 207 207 212 212 207 207 209 212 216 220 228 231 228 234 242 246 246 250 268 274 273 278 287 293 301 310 314 313 316 318 316 318 325 329 329 327 323 313 295
219 215 213 213 213 216 219 217 215 219 224 226 225 220 220 224 225 218 211 208 206 205 205 205 204 200 197 198 201 204 205 205 204 207 212 213 211 213 213 205 197 195 202 208 205 205 210 212 212 210 210 214 214 211 212 212 214 216 220 228 233 234 236 239 246 254 257 263 270 279 290 292 293 298 305 310 309 312 316 316 314 314 316 318 316 315 312 298
219 215 213 212 213 215 217 216 215 219 225 229 229 223 220 224 225 221 217 212 208 207 209 210 208 203 199 199 201 203 203 203 204 206 210 211 211 212 210 202 197 199 208 212 207 207 211 212 212 212 213 215 216 216 217 218 220 222 225 230 233 235 234 233 239 247 254 262 267 276 288 294 296 298 305 312 312 312 313 313 311 307 305 311 311 308 306 299
219 216 213 212 213 214 216 216 214 216 221 227 229 227 223 224 225 223 221 218 213 210 211 213 212 208 205 203 201 202 203 202 202 205 208 210 212 212 208 202 199 202 211 214 210 212 217 215 214 215 216 218 218 219 220 223 226 228 229 230 231 232 232 232 237 242 249 260 267 272 284 293 296 297 306 311 309 310 312 312 312 309 310 316 318 313 306 298
219 217 214 212 213 214 215 216 215 214 217 221 225 226 225 225 224 222 221 219 216 214 214 215 215 213 212 209 203 201 202 202 203 203 204 208 212 212 208 205 203 204 210 214 211 214 217 214 214 217 219 220 220 219 220 225 228 229 228 229 230 231 232 234 238 241 245 256 266 272 278 286 291 296 306 309 306 308 312 313 313 313 313 318 321 318 312 301
219 217 214 213 213 213 214 215 215 214 216 218 221 222 222 223 223 221 221 220 217 216 218 220 218 216 217 215 210 205 203 204 205 202 200 204 209 209 207 208 209 207 210 212 210 211 213 211 212 217 220 221 221 220 223 227 230 228 227 229 232 233 235 238 241 244 246 253 264 271 275 277 281 290 299 303 303 304 307 310 312 314 316 320 322 320 314 304
219 218 216 214 213 213 214 215 215 215 215 218 220 221 220 220 221 220 221 222 221 218 219 221 220 219 220 217 212 210 210 211 209 202 199 202 204 203 204 209 211 212 214 215 211 211 211 209 210 214 219 221 223 224 226 229 230 230 229 231 234 237 239 241 245 250 253 257 263 271 277 279 280 285 290 292 295 299 303 307 311 315 317 321 323 320 314 305
219 218 217 215 213 213 214 214 215 216 216 217 220 221 220 219 219 219 220 223 225 223 220 221 220 218 221 219 213 212 214 217 216 205 199 201 201 200 202 205 209 214 219 218 214 211 211 210 212 214 217 220 221 224 228 230 231 232 232 233 236 239 242 244 248 252 256 261 265 271 278 282 284 285 285 286 289 294 298 302 306 310 312 317 320 319 313 306
220 218 218 216 214 213 214 213 214 217 217 218 221 222 221 220 219 219 220 221 224 224 223 224 221 217 220 221 216 214 215 218 218 209 203 203 203 203 203 201 203 211 216 216 214 213 213 214 216 219 221 221 219 221 226 230 233 235 236 238 241 243 244 246 250 253 256 260 265 270 276 281 283 283 284 286 289 292 294 296 301 305 307 311 316 315 310 303
Height
10719 10718 10717 10716 10715 10714 10713 10712 10712 10712 10711 10711 10711 10711 10711 10711 10711 10711 10712 10712 10712 10712 10713 10713 10713 10714 10714 10715 10715 10716 10716 10715 10715 10714 10712 10711 10710 10709 10708 10707 10706 10703 10701 10699 10697 10695 10693 10692 10690 10689 10688 10686 10685 10684 10683 10683 10682 10681 10680 10679 10677 10677 10677 10678 10679 10681 10682 10683 10685 10687 10690 10692 10694 10697 10700 10702 10704 10706 10708 10709 10711 10712 10714 10715 10716 10717 10718 10719
10718 10717 10715 10715 10714 10713 10712 10711 10711 10710 10710 10710 10710 10709 10709 10710 10710 10710 10710 10710 10711 10711 10711 10711 10711 10712 10712 10713 10713 10713 10713 10713 10712 10711 10709 10708 10707 10706 10705 10704 10703 10701 10698 10696 10694 10693 10691 10690 10689 10687 10685 10683 10682 10682 10682 10682 10681 10680 10679 10678 10677 10676 10677 10677 10678 10679 10681 10682 10684 10687 10689 10692 10694 10696 10699 10701 10703 10706 10707 10708 10710 10712 10713 10714 10715 10716 10717 10719
10717 10716 10714 10714 10713 10712 10711 10710 10710 10709 10709 10709 10708 10708 10708 10708 10708 10708 10709 10709 10709 10709 10709 10709 10710 10710 10710 10711 10711 10711 10711 10710 10709 10708 10707 10706 10706 10704 10703 10701 10700 10698 10696 10694 10693 10692 10690 10689 10687 10685 10683 10683 10683 10683 10682 10681 10681 10680 10679 10678 10677 10677 10677 10677 10678 10679 10681 10683 10685 10688 10691 10692 10694 10697 10699 10701 10703 10705 10706 10707 10709 10711 10712 10713 10714 10715 10717 10719
10716 10715 10713 10713 10712 10711 10710 10709 10709 10708 10708 10708 10708 10707 10707 10707 10707 10707 10708 10708 10708 10708 10708 10708 10708 10708 10709 10709 10709 10709 10709 10708 10707 10706 10705 10705 10704 10703 10701 10699 10698 10697 10695 10694 10692 10691 10690 10688 10686 10685 10685 10685 10685 10684 10683 10682 10682 10681 10681 10680 10679 10679 10679 10678 10679 10681 10683 10685 10688 10690 10692 10694 10695 10698 10700 10701 10703 10704 10705 10706 10708 10710 10711 10712 10714 10715 10717 10718
10715 10714 10712 10712 10711 10710 10710 10709 10708 10707 10707 10707 10707 10707 10707 10707 10707 10706 10706 10707 10707 10707 10707 10706 10707 10707 10707 10707 10707 10707 10707 10707 10706 10704 10704 10704 10703 10701 10699 10699 10698 10697 10695 10693 10692 10691 10689 10687 10687 10687 10687 10686 10686 10686 10684 10683 10683 10683 10682 10682 10682 10681 10681 10681 10681 10683 10686 10688 10690 10692 10693 10695 10697 10698 10700 10701 10702 10703 10705 10706 10708 10709 10711 10712 10713 10714 10716 10718
10714 10713 10712 10711 10710 10709 10709 10708 10707 10707 10706 10706 10706 10705 10705 10705 10705 10705 10705 10705 10705 10705 10705 10705 10705 10705 10706 10706 10706 10706 10706 10705 10704 10703 10703 10703 10702 10701 10700 10700 10698 10697 10695 10694 10692 10691 10689 10688 10688 10688 10687 10687 10687 10687 10686 10684 10684 10684 10684 10684 10684 10684 10683 10683 10684 10686 10688 10689 10691 10693 10694 10695 10697 10698 10700 10701 10702 10703 10705 10707 10708 10710 10711 10712 10713 10714 10716 10717
10713 10712 10711 10710 10709 10708 10708 10707 10706 10706 10705 10705 10704 10704 10704 10704 10704 10704 10704 10704 10704 10704 10704 10704 10704 10704 10705 10705 10705 10705 10705 10704 10703 10703 10702 10703 10702 10702 10701 10700 10699 10697 10695 10694 10692 10692 10690 10689 10688 10688 10688 10687 10688 10688 10688 10687 10685 10686 10686 10686 10686 10686 10685 10686 10687 10688 10689 10690 10691 10693 10694 10696 10699 10700 10701 10701 10702 10704 10706 10707 10709 10710 10711 10711 10712 10714 10715 10716
10712 10711 10710 10709 10708 10708 10707 10706 10706 10705 10704 10703 10703 10703 10703 10703 10703 10703 10703 10703 10703 10703 10703 10703 10703 10704 10704 10705 10705 10705 10704 10703 10703 10702 10703 10703 10703 10702 10701 10700 10699 10697 10696 10694 10693 10693 10692 10690 10689 10688 10688 10688 10689 10689 10689 10688 10688 10689 10689 10688 10688 10688 10688 10688 10689 10690 10691 10691 10692 10694 10696 10699 10701 10702 10702 10702 10704 10706 10707 10707 10709 10710 10710 10711 10712 10713 10715 10716
10710 10710 10709 10708 10707 10707 10706 10705 10705 10704 10703 10702 10702 10702 10702 10702 10702 10703 10703 10703 10703 10703 10703 10703 10703 10703 10703 10704 10704 10704 10704 10703 10702 10702 10703 10704 10704 10702 10701 10700 10699 10697 10697 10696 10695 10695 10693 10691 10690 10689 10688 10688 10689 10690 10690 10690 10690 10690 10690 10691 10691 10691 10690 10690 10690 10690 10692 10693 10693 10696 10698 10701 10703 10703 10703 10704 10706 10706 10707 10707 10708 10709 10710 10711 10712 10714 10715 10717
10709 10709 10708 10707 10706 10706 10705 10705 10704 10702 10702 10701 10701 10701 10701 10701 10702 10702 10702 10702 10702 10702 10702 10702 10702 10702 10703 10703 10703 10703 10703 10702 10702 10703 10705 10705 10704 10702 10701 10701 10700 10697 10699 10699 10698 10697 10694 10692 10691 10690 10689 10690 10690 10691 10691 10691 10691 10691 10691 10692 10693 10693 10692 10691 10692 10692 10693 10694 10695 10697 10700 10702 10704 10705 10704 10705 10706 10707 10707 10708 10708 10709 10710 10712 10713 10715 10716 10718
10708 10708 10708 10706 10706 10705 10704 10704 10703 10701 10700 10700 10700 10700 10700 10700 10701 10701 10701 10701 10702 10701 10701 10701 10701 10701 10702 10702 10702 10703 10703 10702 10703 10704 10705 10705 10704 10703 10702 10702 10701 10699 10701 10701 10700 10698 10696 10693 10692 10693 10692 10692 10692 10692 10692 10692 10692 10692 10692 10693 10694 10695 10694 10693 10694 10694 10694 10696 10697 10700 10702 10703 10705 10706 10706 10706 10707 10708 10708 10709 10709 10710 10711 10713 10715 10716 10717 10717
10707 10707 10707 10706 10705 10704 10704 10703 10702 10700 10699 10699 10699 10699 10699 10699 10700 10700 10700 10700 10701 10701 10701 10701 10701 10701 10701 10702 10701 10702 10703 10702 10703 10705 10705 10704 10703 10704 10704 10703 10702 10702 10703 10703 10702 10700 10698 10696 10694 10694 10695 10694 10693 10694 10694 10694 10694 10694 10695 10695 10696 10697 10697 10696 10695 10695 10696 10699 10701 10703 10704 10705 10707 10708 10707 10707 10708 10709 10710 10710 10711 10712 10713 10714 10716 10716 10717 10717
10706 10705 10706 10705 10704 10704 10703 10702 10701 10699 10698 10698 10698 10698 10698 10698 10699 10699 10699 10700 10700 10700 10700 10700 10700 10700 10700 10701 10701 10701 10702 10702 10703 10705 10705 10703 10703 10705 10706 10705 10705 10705 10706 10705 10703 10702 10700 10699 10697 10696 10696 10696 10695 10695 10697 10697 10697 10697 10697 10698 10698 10699 10700 10698 10697 10697 10699 10701 10704 10705 10705 10706 10708 10709 10709 10709 10710 10711 10711 10712 10712 10713 10714 10715 10716 10716 10717 10717
10705 10704 10704 10705 10704 10703 10703 10702 10700 10699 10698 10697 10697 10697 10697 10697 10698 10698 10699 10699 10700 10700 10700 10700 10700 10699 10699 10700 10700 10700 10702 10703 10704 10706 10705 10702 10702 10706 10708 10708 10708 10708 10707 10706 10705 10703 10703 10702 10701 10699 10698 10698 10698 10698 10699 10700 10700 10699 10699 10700 10701 10701 10702 10701 10700 10699 10701 10704 10706 10708 10707 10707 10709 10710 10710 10711 10711 10712 10712 10713 10714 10715 10715 10716 10716 10717 10717 10717
10704 10703 10703 10703 10703 10702 10702 10701 10700 10698 10697 10696 10696 10696 10696 10696 10697 10698 10699 10699 10699 10699 10699 10699 10699 10699 10699 10699 10700 10699 10701 10703 10705 10706 10706 10703 10702 10706 10710 10710 10710 10709 10709 10708 10706 10705 10706 10705 10704 10703 10702 10701 10701 10701 10702 10703 10703 10702 10701 10702 10703 10703 10703 10703 10703 10703 10704 10706 10709 10710 10710 10709 10710 10711 10712 10712 10713 10713 10714 10715 10715 10715 10715 10716 10717 10717 10717 10717
10703 10702 10702 10702 10702 10702 10701 10701 10699 10698 10697 10696 10695 10695 10695 10695 10696 10697 10698 10698 10698 10698 10698 10698 10698 10698 10698 10699 10700 10699 10700 10703 10705 10705 10705 10704 10703 10705 10709 10710 10710 10709 10710 10710 10708 10707 10708 10708 10707 10706 10705 10705 10704 10704 10705 10705 10705 10705 10705 10705 10706 10706 10706 10706 10707 10707 10708 10709 10711 10712 10712 10711 10711 10712 10713 10714 10715 10715 10715 10715 10715 10715 10716 10716 10716 10716 10716 10717
10702 10701 10700 10700 10700 10700 10700 10700 10699 10697 10696 10695 10695 10695 10695 10694 10694 10696 10696 10697 10697 10697 10698 10697 10697 10697 10697 10699 10701 10699 10700 10703 10705 10705 10705 10704 10703 10706 10709 10711 10711 10710 10710 10711 10708 10707 10709 10709 10709 10708 10708 10708 10707 10707 10707 10708 10709 10709 10709 10709 10709 10710 10709 10709 10710 10710 10710 10711 10712 10713 10713 10712 10713 10714 10715 10716 10717 10717 10716 10716 10717 10717 10717 10717 10717 10718 10718 10718
10700 10700 10699 10699 10699 10699 10699 10699 10698 10697 10696 10695 10694 10694 10694 10694 10693 10694 10695 10696 10697 10697 10697 10697 10697 10697 10697 10699 10700 10700 10700 10702 10705 10706 10705 10703 10704 10707 10710 10712 10712 10711 10711 10711 10709 10708 10708 10710 10711 10711 10710 10710 10710 10709 10710 10711 10711 10712 10711 10711 10711 10711 10712 10713 10713 10712 10711 10712 10713 10714 10714 10714 10715 10716 10717 10718 10718 10718 10718 10719 10720 10719 10719 10718 10719 10719 10719 10718
10699 10698 10698 10697 10697 10698 10698 10698 10697 10697 10695 10694 10694 10694 10694 10694 10693 10693 10694 10695 10696 10696 10696 10696 10697 10697 10697 10699 10700 10700 10701 10703 10704 10705 10704 10703 10704 10706 10710 10712 10713 10712 10711 10711 10710 10709 10709 10710 10711 10712 10712 10712 10711 10711 10712 10713 10714 10714 10713 10713 10713 10713 10714 10715 10715 10714 10713 10713 10715 10716 10717 10717 10717 10718 10718 10719 10719 10719 10720 10721 10721 10721 10721 10720 10720 10720 10719 10718
10697 10696 10696 10696 10696 10697 10697 10697 10696 10696 10695 10694 10693 10693 10694 10694 10693 10692 10693 10695 10695 10696 10696 10696 10697 10697 10698 10699 10701 10701 10703 10703 10704 10705 10704 10703 10704 10707 10709 10711 10712 10713 10712 10712 10711 10711 10710 10710 10711 10712 10713 10712 10713 10713 10713 10715 10716 10716 10715 10714 10715 10715 10716 10716 10717 10717 10717 10716 10717 10718 10719 10718 10718 10719 10720 10720 10721 10721 10722 10722 10723 10722 10722 10721 10721 10721 10720 10719
10695 10695 10694 10694 10695 10695 10696 10696 10695 10695 10694 10693 10693 10693 10693 10693 10693 10693 10693 10694 10695 10696 10696 10696 10697 10697 10698 10699 10700 10702 10704 10705 10704 10705 10705 10704 10704 10707 10709 10710 10711 10713 10713 10712 10712 10712 10712 10712 10712 10713 10714 10713 10713 10714 10715 10715 10717 10717 10717 10716 10715 10716 10717 10717 10718 10718 10719 10719 10719 10720 10720 10720 10720 10721 10722 10722 10723 10724 10724 10724 10724 10723 10722 10722 10722 10721 10721 10720
10692 10693 10693 10693 10693 10694 10694 10694 10694 10694 10693 10693 10693 10693 10693 10694 10695 10694 10693 10694 10695 10695 10696 10696 10697 10697 10697 10699 10700 10702 10705 10707 10706 10705 10705 10706 10705 10707 10709 10711 10711 10712 10713 10713 10713 10714 10714 10713 10714 10715 10717 10716 10714 10715 10717 10717 10717 10719 10719 10718 10717 10717 10718 10719 10719 10720 10721 10721 10721 10721 10721 10721 10722 10723 10724 10725 10726 10726 10726 10725 10724 10724 10723 10723 10722 10721 10720 10719
10689 10691 10691 10691 10692 10692 10692 10693 10693 10693 10693 10693 10693 10693 10694 10695 10696 10695 10694 10694 10694 10695 10696 10696 10696 10697 10697 10698 10700 10702 10704 10707 10707 10706 10706 10707 10707 10707 10709 10710 10711 10712 10713 10714 10714 10714 10714 10714 10716 10717 10718 10719 10716 10716 10718 10719 10719 10720 10720 10719 10719 10719 10720 10720 10721 10721 10722 10722 10722 10722 10723 10724 10724 10725 10726 10726 10726 10726 10726 10725 10725 10725 10725 10724 10723 10721 10720 10718
10687 10688 10689 10690 10690 10690 10691 10692 10693 10693 10692 10692 10692 10693 10693 10694 10695 10695 10694 10693 10693 10694 10695 10695 10696 10697 10697 10695 10698 10702 10703 10706 10706 10705 10706 10707 10708 10709 10709 10710 10711 10713 10714 10714 10715 10715 10714 10715 10716 10718 10719 10719 10719 10717 10718 10720 10720 10720 10721 10721 10720 10721 10721 10722 10722 10722 10723 10723 10723 10724 10725 10725 10725 10726 10726 10726 10726 10726 10725 10725 10726 10726 10725 10724 10723 10722 10721 10719
10684 10685 10687 10688 10688 10688 10689 10691 10691 10691 10691 10690 10689 10690 10690 10690 10692 10693 10693 10692 10693 10693 10694 10694 10695 10697 10696 10694 10696 10700 10703 10705 10705 10704 10705 10707 10708 10709 10710 10711 10712 10713 10715 10715 10715 10715 10715 10715 10717 10719 10720 10720 10720 10719 10719 10720 10721 10721 10722 10722 10721 10721 10722 10722 10723 10723 10724 10724 10725 10726 10726 10727 10727 10727 10726 10726 10726 10726 10725 10725 10725 10724 10724 10724 10724 10722 10720 10718
10681 10682 10684 10686 10686 10687 10688 10689 10689 10689 10688 10687 10687 10687 10687 10688 10689 10690 10690 10691 10692 10692 10693 10694 10695 10696 10696 10694 10695 10699 10702 10704 10705 10703 10704 10706 10708 10709 10710 10711 10712 10714 10715 10716 10716 10716 10716 10716 10718 10719 10720 10721 10721 10720 10720 10721 10722 10722 10722 10722 10721 10722 10723 10723 10724 10725 10725 10726 10727 10727 10727 10728 10727 10727 10727 10727 10727 10726 10726 10726 10726 10725 10725 10724 10723 10721 10720 10718
10678 10680 10681 10683 10684 10685 10687 10688 10687 10687 10686 10686 10686 10686 10686 10687 10688 10688 10689 10689 10690 10691 10692 10693 10695 10695 10695 10694 10695 10698 10701 10703 10703 10703 10703 10705 10707 10708 10709 10710 10711 10712 10715 10716 10716 10717 10717 10717 10717 10719 10721 10722 10722 10721 10721 10722 10723 10723 10722 10722 10722 10723 10724 10724 10725 10726 10727 10728 10728 10728 10729 10729 10728 10728 10729 10729 10727 10726 10726 10726 10726 10727 10726 10725 10723 10721 10720 10719
10675 10677 10678 10680 10681 10683 10685 10685 10684 10684 10684 10685 10686 10686 10685 10686 10687 10688 10688 10689 10689 10690 10691 10692 10693 10694 10694 10694 10695 10698 10700 10701 10702 10702 10703 10705 10706 10708 10709 10710 10710 10711 10713 10715 10716 10716 10717 10717 10718 10720 10721 10722 10722 10722 10722 10722 10723 10723 10723 10723 10723 10723 10724 10725 10726 10727 10728 10729 10730 10730 10730 10730 10730 10730 10731 10730 10729 10728 10726 10725 10724 10725 10726 10725 10723 10722 10721 10719
10672 10674 10675 10677 10679 10681 10683 10682 10681 10682 10683 10685 10685 10685 10684 10684 10684 10686 10687 10688 10689 10689 10690 10691 10692 10693 10693 10694 10695 10697 10698 10700 10701 10701 10702 10704 10706 10707 10709 10710 10711 10712 10712 10713 10715 10715 10716 10717 10719 10720 10722 10722 10722 10723 10722 10723 10723 10724 10724 10724 10724 10724 10725 10725 10726 10727 10728 10730 10731 10731 10731 10732 10732 10732 10732 10731 10730 10728 10726 10725 10724 10725 10726 10725 10723 10722 10721 10719
10668 10670 10672 10674 10676 10678 10680 10679 10679 10681 10683 10683 10683 10683 10682 10682 10682 10683 10684 10686 10687 10688 10689 10690 10691 10692 10692 10693 10695 10696 10697 10698 10700 10700 10701 10703 10705 10706 10708 10709 10710 10711 10712 10712 10713 10714 10715 10717 10719 10720 10722 10723 10723 10723 10723 10723 10724 10725 10725 10725 10725 10726 10726 10726 10726 10728 10729 10730 10731 10731 10732 10733 10733 10732 10732 10732 10731 10729 10728 10727 10726 10726 10727 10726 10724 10722 10721 10719
10665 10667 10669 10671 10672 10675 10677 10676 10677 10680 10681 10680 10681 10681 10680 10680 10681 10680 10681 10684 10685 10686 10687 10688 10689 10691 10691 10693 10694 10695 10696 10698 10699 10699 10700 10702 10704 10705 10707 10708 10709 10710 10711 10711 10712 10713 10714 10716 10719 10721 10722 10723 10724 10724 10724 10724 10724 10725 10725 10726 10726 10727 10727 10728 10728 10729 10729 10730 10731 10732 10733 10733 10733 10733 10733 10732 10731 10730 10730 10728 10726 10725 10726 10725 10723 10721 10721 10720
10661 10664 10666 10667 10669 10672 10674 10673 10675 10678 10678 10678 10679 10679 10678 10679 10679 10677 10680 10683 10683 10684 10687 10688 10690 10691 10692 10693 10694 10694 10696 10697 10698 10699 10700 10701 10703 10704 10706 10707 10708 10709 10710 10711 10712 10712 10713 10716 10718 10721 10722 10723 10724 10724 10724 10725 10725 10725 10725 10725 10726 10727 10728 10729 10729 10730 10730 10731 10732 10733 10734 10734 10733 10733 10733 10733 10731 10730 10730 10728 10725 10724 10724 10724 10722 10721 10721 10720
10658 10660 10662 10663 10665 10669 10671 10670 10672 10676 10675 10675 10676 10676 10676 10676 10674 10675 10679 10680 10680 10683 10686 10687 10689 10691 10692 10693 10694 10694 10695 10696 10697 10699 10700 10701 10702 10703 10704 10706 10707 10708 10709 10710 10712 10713 10714 10715 10717 10720 10721 10723 10724 10724 10724 10725 10725 10726 10726 10726 10726 10727 10729 10730 10730 10731 10731 10732 10732 10733 10734 10734 10734 10734 10734 10733 10732 10730 10729 10728 10726 10724 10724 10724 10723 10721 10721 10721
10654 10656 10658 10659 10661 10665 10667 10667 10670 10673 10673 10673 10674 10673 10673 10672 10671 10674 10676 10677 10679 10682 10683 10684 10686 10687 10688 10690 10692 10695 10695 10695 10697 10698 10699 10700 10701 10702 10703 10705 10706 10708 10708 10710 10712 10713 10714 10715 10717 10719 10720 10722 10723 10724 10725 10725 10726 10727 10727 10727 10728 10728 10729 10730 10730 10731 10732 10732 10733 10733 10734 10734 10735 10734 10734 10733 10733 10731 10730 10729 10727 10724 10724 10725 10724 10722 10721 10721
10649 10651 10653 10654 10657 10661 10664 10665 10667 10669 10670 10671 10671 10670 10670 10668 10670 10673 10673 10673 10676 10678 10679 10681 10683 10684 10685 10687 10689 10693 10694 10695 10696 10697 10698 10699 10700 10702 10703 10704 10705 10707 10708 10709 10711 10713 10714 10715 10717 10718 10720 10721 10722 10723 10724 10726 10726 10727 10728 10729 10729 10730 10730 10730 10730 10731 10732 10733 10733 10734 10734 10734 10735 10734 10733 10733 10733 10733 10733 10731 10728 10725 10724 10724 10722 10721 10721 10721
10644 10646 10648 10650 10652 10656 10660 10662 10665 10666 10667 10668 10668 10667 10667 10667 10669 10671 10670 10671 10673 10675 10677 10679 10681 10683 10684 10685 10686 10689 10692 10694 10695 10696 10698 10698 10699 10701 10702 10703 10703 10705 10707 10709 10710 10712 10713 10715 10716 10718 10719 10720 10721 10723 10724 10725 10726 10728 10729 10729 10730 10730 10730 10730 10731 10732 10733 10733 10733 10733 10734 10735 10735 10734 10732 10731 10732 10733 10732 10730 10727 10724 10723 10723 10722 10721 10721 10721
10639 10640 10642 10645 10648 10652 10656 10659 10662 10663 10664 10665 10664 10665 10666 10666 10667 10668 10668 10670 10673 10676 10677 10677 10678 10680 10682 10683 10685 10686 10689 10692 10694 10695 10696 10697 10699 10700 10701 10702 10703 10704 10706 10708 10709 10711 10712 10714 10715 10717 10718 10719 10720 10722 10723 10725 10726 10728 10729 10729 10730 10730 10730 10730 10731 10731 10732 10733 10733 10734 10734 10735 10734 10733 10731 10730 10729 10730 10730 10728 10726 10724 10722 10722 10722 10722 10721 10721
10632 10634 10636 10641 10645 10648 10652 10656 10659 10660 10661 10661 10661 10662 10663 10663 10664 10665 10666 10669 10672 10674 10676 10677 10677 10678 10679 10681 10683 10685 10688 10691 10692 10694 10695 10697 10699 10699 10699 10701 10702 10703 10705 10706 10708 10710 10711 10713 10715 10716 10717 10718 10720 10721 10722 10724 10726 10727 10728 10729 10730 10730 10730 10730 10730 10731 10732 10732 10733 10734 10734 10735 10734 10732 10730 10729 10727 10727 10727 10727 10726 10724 10722 10721 10722 10722 10722 10721
10626 10628 10633 10639 10642 10645 10649 10653 10655 10657 10658 10657 10657 10659 10660 10661 10661 10662 10663 10666 10668 10670 10672 10674 10675 10677 10678 10679 10682 10685 10687 10688 10690 10692 10694 10695 10696 10697 10698 10699 10701 10702 10703 10705 10707 10709 10711 10712 10713 10715 10716 10718 10719 10720 10722 10723 10725 10726 10727 10728 10728 10728 10729 10729 10730 10731 10732 10732 10732 10733 10733 10734 10734 10732 10730 10728 10726 10726 10727 10727 10726 10725 10722 10721 10722 10722 10721 10721
10621 10624 10630 10636 10639 10642 10645 10649 10653 10654 10654 10653 10653 10656 10658 10658 10659 10659 10661 10663 10664 10666 10668 10670 10672 10675 10676 10678 10681 10684 10686 10687 10689 10691 10692 10693 10694 10695 10696 10698 10699 10701 10702 10704 10706 10708 10709 10711 10712 10714 10715 10717 10718 10719 10721 10722 10723 10725 10726 10726 10726 10727 10728 10729 10730 10731 10731 10731 10731 10732 10732 10732 10733 10732 10730 10729 10727 10726 10726 10726 10725 10725 10723 10721 10722 10722 10721 10721
10616 10620 10626 10631 10634 10636 10640 10645 10649 10650 10649 10648 10650 10653 10655 10656 10656 10657 10659 10661 10663 10664 10665 10667 10669 10671 10674 10676 10679 10681 10683 10685 10688 10690 10691 10692 10693 10695 10695 10696 10699 10700 10702 10704 10705 10706 10708 10710 10712 10713 10715 10716 10717 10718 10719 10720 10722 10723 10723 10724 10725 10726 10727 10728 10729 10730 10730 10729 10730 10730 10730 10730 10731 10731 10730 10729 10727 10726 10726 10725 10725 10724 10723 10721 10720 10720 10721 10721
10611 10616 10620 10625 10629 10631 10635 10639 10643 10645 10645 10644 10646 10650 10652 10653 10654 10655 10656 10659 10661 10663 10664 10666 10667 10669 10671 10674 10677 10678 10680 10682 10685 10689 10691 10692 10694 10694 10694 10696 10698 10699 10701 10702 10704 10706 10708 10709 10711 10712 10714 10715 10715 10716 10718 10719 10719 10720 10721 10722 10724 10725 10726 10726 10727 10727 10728 10728 10728 10729 10729 10729 10729 10729 10729 10728 10727 10725 10724 10724 10724 10723 10722 10720 10719 10719 10719 10719
10605 10610 10615 10620 10625 10628 10631 10635 10638 10639 10638 10637 10641 10646 10649 10650 10651 10652 10655 10656 10657 10659 10662 10663 10664 10665 10668 10671 10673 10675 10677 10679 10682 10686 10689 10691 10693 10692 10692 10694 10696 10698 10700 10701 10704 10706 10707 10708 10710 10711 10712 10713 10713 10714 10716 10717 10718 10719 10720 10721 10722 10723 10724 10724 10724 10725 10725 10725 10725 10726 10727 10727 10727 10727 10727 10726 10725 10724 10722 10722 10722 10722 10721 10720 10718 10717 10717 10717
10600 10606 10610 10616 10622 10625 10627 10629 10631 10631 10630 10631 10636 10641 10645 10647 10648 10650 10651 10653 10654 10655 10657 10659 10660 10662 10665 10668 10670 10671 10674 10676 10680 10683 10685 10688 10689 10690 10690 10693 10695 10697 10699 10701 10703 10705 10706 10707 10709 10710 10711 10711 10712 10713 10714 10715 10716 10717 10719 10719 10720 10721 10721 10722 10722 10722 10723 10723 10722 10723 10724 10724 10724 10725 10725 10724 10723 10722 10721 10720 10720 10720 10720 10719 10718 10717 10716 10716
10595 10601 10605 10610 10615 10618 10619 10622 10625 10627 10627 10630 10634 10639 10643 10644 10645 10646 10647 10649 10651 10652 10653 10654 10656 10659 10662 10664 10666 10668 10671 10675 10677 10680 10682 10685 10687 10687 10689 10693 10695 10697 10698 10699 10702 10704 10705 10706 10708 10709 10710 10710 10711 10713 10713 10714 10715 10716 10717 10717 10718 10719 10719 10720 10720 10720 10720 10721 10720 10720 10721 10721 10721 10722 10722 10722 10722 10721 10720 10719 10718 10718 10719 10718 10718 10717 10716 10715
10590 10595 10598 10603 10608 10610 10612 10616 10621 10624 10626 10630 10634 10638 10640 10641 10641 10642 10644 10645 10647 10649 10650 10651 10653 10656 10658 10660 10662 10665 10668 10671 10674 10676 10678 10681 10684 10685 10688 10691 10694 10695 10696 10697 10700 10703 10704 10705 10707 10708 10708 10709 10711 10712 10712 10713 10714 10714 10715 10715 10716 10717 10717 10718 10718 10718 10719 10719 10718 10719 10719 10718 10718 10719 10720 10720 10719 10719 10719 10718 10716 10716 10716 10716 10716 10715 10714 10713
10584 10588 10591 10596 10600 10604 10607 10611 10615 10619 10622 10627 10631 10634 10635 10635 10636 10639 10642 10643 10644 10645 10647 10648 10650 10653 10654 10656 10659 10662 10665 10668 10671 10673 10676 10679 10681 10683 10687 10689 10691 10693 10694 10696 10700 10702 10703 10705 10706 10706 10707 10708 10710 10710 10711 10712 10713 10713 10713 10714 10714 10715 10716 10716 10716 10716 10717 10717 10717 10718 10718 10717 10716 10716 10717 10718 10718 10717 10717 10716 10714 10713 10713 10713 10712 10711 10711 10710
10577 10581 10584 10589 10593 10597 10601 10606 10610 10614 10617 10620 10624 10627 10629 10630 10632 10636 10638 10640 10642 10644 10645 10646 10648 10651 10653 10655 10658 10660 10663 10666 10668 10671 10674 10678 10680 10682 10685 10688 10689 10691 10693 10695 10699 10701 10702 10704 10704 10705 10706 10707 10708 10709 10709 10710 10711 10711 10711 10712 10713 10713 10714 10714 10714 10715 10716 10716 10716 10716 10717 10717 10715 10713 10715 10716 10715 10715 10715 10714 10712 10711 10711 10710 10709 10707 10707 10706
10570 10574 10577 10582 10585 10590 10596 10601 10606 10610 10612 10614 10616 10617 10620 10623 10627 10632 10635 10637 10639 10642 10644 10645 10648 10651 10654 10656 10658 10660 10662 10664 10666 10669 10672 10675 10677 10680 10683 10686 10688 10690 10691 10693 10695 10697 10698 10701 10702 10703 10704 10704 10705 10707 10708 10708 10709 10709 10710 10710 10710 10711 10712 10712 10713 10713 10713 10714 10714 10714 10715 10717 10715 10713 10714 10714 10714 10713 10713 10712 10711 10709 10708 10707 10706 10705 10704 10704
10563 10567 10570 10574 10578 10584 10590 10596 10601 10603 10604 10607 10608 10610 10613 10617 10623 10629 10633 10635 10636 10639 10642 10644 10648 10652 10654 10655 10657 10659 10661 10662 10664 10666 10669 10671 10673 10677 10680 10683 10685 10687 10688 10690 10692 10693 10695 10697 10699 10700 10701 10702 10703 10705 10706 10706 10707 10708 10708 10708 10708 10709 10710 10710 10711 10711 10711 10712 10713 10713 10713 10714 10715 10714 10713 10713 10712 10712 10711 10710 10709 10708 10706 10705 10704 10702 10701 10701
10556 10560 10562 10566 10571 10578 10584 10590 10594 10595 10598 10601 10603 10605 10610 10614 10620 10626 10630 10632 10634 10637 10639 10641 10645 10650 10652 10653 10655 10657 10659 10661 10663 10665 10666 10668 10671 10673 10676 10679 10682 10684 10686 10687 10688 10690 10692 10695 10696 10697 10698 10699 10701 10702 10703 10704 10705 10705 10705 10706 10707 10707 10707 10708 10708 10709 10709 10710 10711 10712 10712 10711 10711 10712 10711 10711 10711 10710 10709 10709 10708 10707 10706 10704 10702 10700 10699 10698
10549 10552 10555 10558 10565 10572 10577 10584 10588 10589 10593 10598 10599 10603 10608 10613 10619 10623 10625 10628 10631 10634 10636 10638 10642 10647 10649 10651 10654 10656 10657 10659 10661 10663 10664 10666 10668 10670 10672 10674 10678 10681 10683 10684 10686 10688 10690 10692 10693 10694 10695 10696 10698 10699 10700 10702 10702 10701 10702 10703 10704 10704 10705 10705 10706 10706 10707 10708 10709 10710 10710 10709 10708 10708 10708 10708 10707 10707 10707 10707 10707 10706 10705 10703 10702 10700 10698 10696